FENGYUN 1C DEB, 29966

Orbit data source: Space-Track

FENGYUN 1C DEB, 29966 is space debris in SSO originally from a launch on Mon, 10 May 1999 UTC launched from the Taiyaun Space Center, China (TSC). Fengyun 1C debris stems from the Chinese weather satellite Fengyun-1C, which was intentionally destroyed by a Chinese anti-satellite missile in 2007. This event dramatically increased the amount of space debris, with thousands of trackable fragments posing hazards to satellites and human spaceflight. The Fengyun 1C debris cloud has become a focal point in discussions about space sustainability and the need for international regulations to prevent the creation of new debris.

Loading next visibility...
Identifier
29966, 1999-025KQ
Orbit
SSO
Country
Flag of CNCN / PRC
Related business
Manufacturer
Unknown
Mission
Spacecraft
Bus & Motor
Unknown
Mass
Unknown
Launch date (UTC)
1999-05-10 (27 years ago)
Launch vehicle
Unknown
Launch site
Taiyaun Space Center, China (TSC)
Object type
Payload
Rocket body
Debris
Shape & HBR
Unknown shape, 0.1 m
Radar Cross Section
Medium (>0.1 m² and <1 m²)

Expand to show TLE details & history
Last TLE update: 12 hours ago

TLE from 12 hours ago
0 FENGYUN 1C DEB
1 29966U 99025KQ  26208.11461360  .00000621  00000-0  27838-3 0  9997
2 29966  99.4690  78.5052 0040428  61.8409 298.6844 14.26118851 12690
Epoch: 2026-07-27T02:45Z
TLE epoch observation values (Epoch: 2026-07-27T02:45:02.615Z)
Latitude
0.00003°
Longitude
92.44147°
Altitude
793.78 km
Speed
7.464 km/s
True Right ascension
05h 14m 01s
True Declination
0° 00' 00"
Sunlit
Object was in daylight at epoch
Visualization orbit readout
Latitude
Unknown
Longitude
Unknown
Altitude
Unknown
Speed
Unknown
Apparent Right ascension
Unknown
Apparent Declination
Unknown
Sunlit
N/A
Visualization observer readout
Local Sidereal Time
03:40:30
Azimuth
Unknown
Elevation
Unknown
Doppler factor
Unknown
Orbital elements
Apogee altitude
830.949 km
Perigee altitude
772.894 km
Semi-major axis
7,180.059 km
Eccentricity
0.00404
Inclination
99.469°
RAAN
78.5052°
Arg. of periapsis
61.8409°
True anomaly
298.277°
Mean anomaly
298.6844°
Eccentric anomaly
298.4808°
Mean motion
3.56739 °/min
Orbital period
100.91 mins
BSTAR
0.00027838
Loading maneuver chart data...
Computing Atmospheric mass density...
Loading historical data...
Loading historical data...
Loading historical data...
Loading historical data...
Loading historical data...
Loading historical data...
Loading historical data...

Documentation

Showing up to 5 results
|